Simultaneous Nadir Overpasses (SNOs) Predictions

Prediction of SNOs between GOES-16 and METOP-C Satellite Orbit:

Table of predicted SNOs for the next 14.0 days since TLE Epoch: 3/19/2022
Index Date Time (GOES-16) GOES-16 Lat,Lon METOP-C Lat,Lon Distance(km) Time Diff (sec)
1 03/20/2022 02:50:56 -0.06, -75.21 -1.00, -79.39 476.03 80
2 03/21/2022 02:27:37 -0.05, -75.22 0.10, -74.39 93.27 80
3 03/22/2022 14:49:10 0.06, -75.24 0.89, -78.96 424.20 80
4 03/23/2022 14:25:51 0.05, -75.25 -0.21, -73.97 145.14 80
5 03/25/2022 02:47:31 -0.05, -75.23 -0.77, -78.57 379.93 80
6 03/26/2022 02:24:11 -0.05, -75.24 0.34, -73.58 189.49 80
7 03/27/2022 14:43:05 0.05, -75.27 0.66, -78.15 327.51 80
8 03/28/2022 14:22:25 0.04, -75.28 -0.45, -73.15 242.60 80
9 03/30/2022 02:44:04 -0.04, -75.28 -0.58, -77.74 280.79 80
10 03/31/2022 02:20:45 -0.04, -75.29 0.53, -72.75 289.87 80
11 04/01/2022 14:39:38 0.04, -75.34 0.46, -77.32 225.38 80
